Location: Neuvy Saint Sepulchre
(46.5953°N, 1.8122°E)
Time: 10:07:02
(UTC+02:00)

ISS - Pass Details

Date: 05 April 2019
Orbit: 408 x 410 km, 51.6° (Epoch: 21 April)

Event Time Altitude Azimuth Distance (km) Brightness Sun altitude
Rises 19:58:47 0° 293° (WNW) 2,339 1.8 3.9°
Reaches altitude 10° 20:00:57 10° 301° (WNW) 1,477 0.4 3.5°
Drops below altitude 10° 20:07:14 10° 84° (E) 1,472 -1.6 2.5°
Enters shadow 20:09:54 -2° 93° (E) 2,534 -0.5 2.0°
Exits shadow 20:45:54 -77° 114° (ESE) 12,856 3.6 -4.1°
Maximum altitude 21:40:50 60° 211° (SSW) 472 -3.5 -13.0°
